Zurück zum Katalog

FENGYUN 1C DEB

AktivPO
NORAD 30628·DEBRIS·🇨🇳 China

Gestartet May 10, 1999 von Taiyuan Satellite Launch Center

Loading…

Nächste Überflüge (nächste 24 Stunden)

TLE

AktuellSource: Space-Track

Epoche: Sep 14, 2026, 07:46 UTC

1 30628U 99025ANK 26257.32391438  .00010555  00000-0  14929-2 0  9992
2 30628  99.3465 219.4796 0021894 110.1190 250.2374 14.77176146 25231

Verfolge FENGYUN 1C DEB in Echtzeit mit AllMySat

Download on the App Store